Overview Statistics Trail Chart Weather Telemetry Raw packets
 

This is the latest recevied weather packets stored in our database for station/object W7BTL. If no packets are shown the sender has not sent any weather packets the latest 10 day(s).

<< 53 54 55 56 57 58 59 >>
Time Temp. Humidity Pressure Rain* Wind** Luminosity Snow
1788299968 30° C 45% 1013.8 hPa 0 mm - 783 W/m² -
1788299367 29.44° C 45% 1013.9 hPa 0 mm - 813 W/m² -
1788299065 29.44° C 45% 1013.9 hPa 0 mm - 828 W/m² -
1788298760 30° C 44% 1013.8 hPa 0 mm - 841 W/m² -
1788298455 30.56° C 44% 1014 hPa 0 mm - 854 W/m² -
1788298154 30.56° C 44% 1014.2 hPa 0 mm - 865 W/m² -
1788297850 30.56° C 44% 1013.8 hPa 0 mm - 877 W/m² -
1788297546 30° C 45% 1014 hPa 0 mm - 888 W/m² -
1788297241 30.56° C 43% 1013.9 hPa 0 mm - 905 W/m² -
1788296937 30.56° C 44% 1014 hPa 0 mm - 913 W/m² -
1788296632 30.56° C 44% 1014.1 hPa 0 mm - 921 W/m² -
1788296329 30.56° C 43% 1014 hPa 0 mm - 932 W/m² -
1788296023 30.56° C 44% 1014 hPa 0 mm - 940 W/m² -
1788295718 31.11° C 43% 1014.1 hPa 0 mm - 946 W/m² -
1788295415 31.67° C 41% 1014 hPa 0 mm - 948 W/m² -
1788295109 32.22° C 37% 1014.1 hPa 0 mm - 957 W/m² -
1788294809 32.22° C 35% 1014 hPa 0 mm - 930 W/m² -
1788294504 31.67° C 37% 1014.2 hPa 0 mm - 979 W/m² -
1788294198 31.67° C 36% 1014.2 hPa 0 mm - 982 W/m² -
1788293895 31.11° C 35% 1014.3 hPa 0 mm - 988 W/m² -
1788293594 31.11° C 36% 1014.4 hPa 0 mm - 984 W/m² -
1788293288 30.56° C 39% 1014.6 hPa 0 mm - 989 W/m² -
1788292984 30.56° C 39% 1014.5 hPa 0 mm - 988 W/m² -
1788292682 30.56° C 42% 1014.6 hPa 0 mm - 994 W/m² -
1788292381 30.56° C 42% 1014.6 hPa 0 mm - 985 W/m² -

* Rain latest hour (hover to see other rain measurements)
** Current wind speed in m/s (hover to see current wind gust speed)